DW1779 Weather Reports


time (UTC)temp
F
wind
direction
speed
knots
gust
knots
rain 1hr
in
rain 24hr
in
rain mn
in
humidity
%
barometer
mb
20260901030656 74 160 0.9 4.3 0.00 0.00 0.00 85 1017.9
20260901030054 74 138 0.9 4.3 0.00 0.00 0.00 86 1017.9
20260901025554 73 202 0.9 4.3 0.00 0.00 0.00 86 1017.9
20260901025054 73 193 0.9 5.2 0.00 0.00 0.00 86 1017.9
20260901024601 73 161 0.9 2.6 0.00 0.00 0.00 86 1017.9
20260901024053 73 165 0.0 1.7 0.00 0.00 0.00 85 1017.8
20260901023553 74 175 0.0 1.7 0.00 0.00 0.00 85 1017.8
20260901023054 74 167 0.0 0.9 0.00 0.00 0.00 83 1017.8
20260901022553 74 159 0.0 0.9 0.00 0.00 0.00 82 1017.8
20260901022053 75 159 0.0 0.0 0.00 0.00 0.00 81 1017.7
20260901021608 75 159 0.0 0.0 0.00 0.00 0.00 80 1017.7
20260901021055 75 159 0.0 0.0 0.00 0.00 0.00 79 1017.6
20260901020653 76 159 0.0 0.9 0.00 0.00 0.00 79 1017.5
20260901020052 76 159 0.0 0.9 0.00 0.00 0.00 79 1017.5
20260901015552 76 159 0.0 0.9 0.00 0.00 0.00 79 1017.4
20260901015051 76 159 0.0 0.0 0.00 0.00 0.00 79 1017.4
20260901014552 76 159 0.0 1.7 0.00 0.00 0.00 78 1017.3
20260901014051 76 146 0.0 1.7 0.00 0.00 0.00 76 1017.3
20260901013551 77 173 0.0 0.9 0.00 0.00 0.00 76 1017.1
20260901013106 77 169 0.0 1.7 0.00 0.00 0.00 75 1017.1
20260901012553 78 159 0.0 0.9 0.00 0.00 0.00 73 1017.1
20260901012050 78 179 0.0 1.7 0.00 0.00 0.00 71 1017.0
20260901011550 79 179 0.0 1.7 0.00 0.00 0.00 71 1017.0
20260901011050 79 184 0.0 1.7 0.00 0.00 0.00 70 1016.8
20260901010651 80 184 0.0 1.7 0.00 0.00 0.00 68 1016.9
20260901010049 80 153 0.0 1.7 0.00 0.00 0.00 67 1016.9
20260901005549 81 165 0.0 1.7 0.00 0.00 0.00 66 1016.8
20260901005048 82 147 0.0 0.9 0.00 0.00 0.00 64 1016.7
20260901004549 82 144 0.0 0.9 0.00 0.00 0.00 63 1016.7
20260901004049 83 143 0.0 1.7 0.00 0.00 0.00 62 1016.7
20260901003548 84 140 0.0 2.6 0.00 0.00 0.00 62 1016.6
20260901003049 85 176 0.0 4.3 0.00 0.00 0.00 59 1016.6
20260901002548 86 157 0.9 4.3 0.00 0.00 0.00 60 1016.5
20260901002048 86 155 1.7 4.3 0.00 0.00 0.00 57 1016.4
20260901001548 86 169 1.7 5.2 0.00 0.00 0.00 57 1016.5
20260901001051 87 155 2.6 5.2 0.00 0.00 0.00 56 1016.4
20260901000648 88 230 1.7 8.7 0.00 0.00 0.00 53 1016.4
20260901000049 90 160 1.7 8.7 0.00 0.00 0.00 53 1016.4
20260831235546 90 184 1.7 5.2 0.00 0.00 0.00 50 1016.3
20260831235048 90 162 2.6 7.0 0.00 0.00 0.00 48 1016.4
20260831234545 91 191 2.6 7.8 0.00 0.00 0.00 48 1016.3
20260831234045 91 200 3.5 9.6 0.00 0.00 0.00 47 1016.3
20260831233546 91 189 2.6 10.4 0.00 0.00 0.00 48 1016.3
20260831233045 91 163 3.5 7.8 0.00 0.00 0.00 47 1016.3
20260831232547 92 216 1.7 8.7 0.00 0.00 0.00 47 1016.3
20260831232045 92 223 2.6 8.7 0.00 0.00 0.00 47 1016.3
20260831231600 92 177 2.6 7.8 0.00 0.00 0.00 46 1016.3
20260831231044 93 150 4.3 8.7 0.00 0.00 0.00 45 1016.3
20260831230644 93 109 3.5 8.7 0.00 0.00 0.00 45 1016.3
20260831230101 93 140 3.5 7.8 0.00 0.00 0.00 46 1016.4
20260831225557 93 207 3.5 7.8 0.00 0.00 0.00 47 1016.3
20260831225057 93 150 3.5 8.7 0.00 0.00 0.00 45 1016.3
20260831224629 94 93 2.6 7.8 0.00 0.00 0.00 43 1016.3
20260831224059 94 148 2.6 7.8 0.00 0.00 0.00 46 1016.2
20260831223557 94 155 3.5 9.6 0.00 0.00 0.00 43 1016.3
20260831223057 94 98 4.3 9.6 0.00 0.00 0.00 42 1016.3
20260831222556 94 228 0.9 13.9 0.00 0.00 0.00 43 1016.2
20260831222058 94 123 4.3 14.8 0.00 0.00 0.00 44 1016.2
20260831221605 94 163 4.3 8.7 0.00 0.00 0.00 43 1016.2
20260831221055 95 190 2.6 7.8 0.00 0.00 0.00 45 1016.2
20260831220657 95 179 3.5 7.8 0.00 0.00 0.00 43 1016.1
20260831220059 96 105 2.6 7.0 0.00 0.00 0.00 43 1016.2
20260831215559 96 77 1.7 10.4 0.00 0.00 0.00 44 1016.2
20260831215058 95 182 3.5 10.4 0.00 0.00 0.00 42 1016.1
20260831214603 96 151 4.3 8.7 0.00 0.00 0.00 43 1016.2
20260831214101 95 135 0.9 6.1 0.00 0.00 0.00 47 1016.4
20260831213559 95 153 2.6 8.7 0.00 0.00 0.00 44 1016.4
20260831213058 92 132 2.6 8.7 0.00 0.00 0.00 50 1016.3
20260831212557 93 215 0.9 5.2 0.00 0.00 0.00 52 1016.5
20260831212100 95 207 1.7 5.2 0.00 0.00 0.00 47 1016.5
20260831211607 95 100 1.7 5.2 0.00 0.00 0.00 46 1016.5
20260831211056 95 258 1.7 5.2 0.00 0.00 0.00 50 1016.5
20260831210656 96 192 0.9 7.0 0.00 0.00 0.00 41 1016.5
20260831210059 96 189 3.5 7.0 0.00 0.00 0.00 42 1016.6
20260831205551 93 145 0.9 6.1 0.00 0.00 0.00 51 1016.8
20260831205052 91 137 1.7 6.1 0.00 0.00 0.00 54 1016.6
20260831204551 92 136 0.9 6.1 0.00 0.00 0.00 51 1016.8
20260831204051 92 158 2.6 6.1 0.00 0.00 0.00 53 1016.8
20260831203550 92 134 0.9 4.3 0.00 0.00 0.00 53 1016.9
20260831203051 94 155 0.9 7.0 0.00 0.00 0.00 51 1016.9
20260831202550 96 141 1.7 7.0 0.00 0.00 0.00 40 1016.8
20260831202050 97 114 2.6 7.0 0.00 0.00 0.00 41 1016.9
20260831201551 98 140 2.6 7.8 0.00 0.00 0.00 44 1016.9
20260831201050 98 254 3.5 7.8 0.00 0.00 0.00 40 1017.0
20260831200652 98 186 1.7 7.0 0.00 0.00 0.00 42 1017.1
20260831200047 98 194 0.9 2.6 0.00 0.00 0.00 43 1017.2
20260831195548 97 117 0.9 3.5 0.00 0.00 0.00 48 1017.1
20260831195048 96 360 0.9 3.5 0.00 0.00 0.00 47 1017.2
20260831194556 94 338 0.0 2.6 0.00 0.00 0.00 45 1017.2
20260831194046 95 5 0.9 2.6 0.00 0.00 0.00 44 1017.3
20260831193547 95 49 0.0 1.7 0.00 0.00 0.00 49 1017.4
20260831193052 95 301 0.0 1.7 0.00 0.00 0.00 45 1017.5
20260831192545 96 340 0.9 4.3 0.00 0.00 0.00 42 1017.5
20260831192046 96 248 1.7 4.3 0.00 0.00 0.00 42 1017.6
20260831191550 96 12 0.9 4.3 0.00 0.00 0.00 49 1017.7
20260831191045 96 305 0.9 4.3 0.00 0.00 0.00 45 1017.7
20260831190645 97 328 0.9 8.7 0.00 0.00 0.00 42 1017.7
20260831190051 97 300 3.5 8.7 0.00 0.00 0.00 42 1017.7
20260831185548 97 31 0.9 3.5 0.00 0.00 0.00 45 1017.8
20260831185048 97 342 1.7 7.0 0.00 0.00 0.00 42 1017.8
20260831184549 97 296 0.9 8.7 0.00 0.00 0.00 40 1017.9
20260831184048 98 296 4.3 8.7 0.00 0.00 0.00 41 1018.1
20260831183547 97 327 2.6 6.1 0.00 0.00 0.00 40 1018.1
20260831183047 97 119 2.6 6.1 0.00 0.00 0.00 41 1018.1
20260831182546 97 223 1.7 5.2 0.00 0.00 0.00 43 1018.2
20260831182048 96 161 0.9 4.3 0.00 0.00 0.00 46 1018.2
20260831181545 95 314 0.9 7.8 0.00 0.00 0.00 44 1018.3
20260831181043 96 295 2.6 8.7 0.00 0.00 0.00 44 1018.3
20260831180644 96 278 2.6 8.7 0.00 0.00 0.00 42 1018.3
20260831180051 96 257 3.5 8.7 0.00 0.00 0.00 44 1018.4
20260831175550 97 355 4.3 8.7 0.00 0.00 0.00 43 1018.4
20260831175050 97 349 2.6 6.1 0.00 0.00 0.00 44 1018.4
20260831174550 97 269 2.6 6.1 0.00 0.00 0.00 42 1018.4
20260831174052 96 173 1.7 9.6 0.00 0.00 0.00 46 1018.5
20260831173548 95 192 1.7 9.6 0.00 0.00 0.00 44 1018.7
20260831173048 96 241 1.7 8.7 0.00 0.00 0.00 46 1018.8
20260831172548 95 306 2.6 8.7 0.00 0.00 0.00 47 1018.7
20260831172044 96 295 2.6 10.4 0.00 0.00 0.00 47 1018.8
20260831171543 95 294 4.3 10.4 0.00 0.00 0.00 46 1019.0
20260831171041 95 170 2.6 8.7 0.00 0.00 0.00 45 1019.0
20260831170642 95 284 0.9 7.0 0.00 0.00 0.00 51 1019.0
20260831170055 95 262 1.7 9.6 0.00 0.00 0.00 50 1019.2
20260831165551 94 246 1.7 9.6 0.00 0.00 0.00 50 1019.2
20260831165048 94 234 1.7 10.4 0.00 0.00 0.00 52 1019.3
20260831164548 94 200 4.3 10.4 0.00 0.00 0.00 48 1019.3
20260831164048 93 188 1.7 7.8 0.00 0.00 0.00 50 1019.4
20260831163546 93 313 3.5 8.7 0.00 0.00 0.00 49 1019.5
20260831163046 94 254 1.7 13.0 0.00 0.00 0.00 47 1019.5
20260831162548 93 311 4.3 13.0 0.00 0.00 0.00 48 1019.5
20260831162046 93 115 1.7 8.7 0.00 0.00 0.00 50 1019.5
20260831161641 92 266 1.7 7.8 0.00 0.00 0.00 50 1019.5
20260831161043 92 184 2.6 7.8 0.00 0.00 0.00 49 1019.5
20260831160512 92 165 0.9 7.8 0.00 0.00 0.00 53 1019.5
20260831160011 92 214 1.7 7.0 0.00 0.00 0.00 51 1019.5
20260831155507 91 253 3.5 7.0 0.00 0.00 0.00 53 1019.6
20260831155007 90 244 2.6 7.8 0.00 0.00 0.00 54 1019.5
20260831154504 90 213 2.6 7.8 0.00 0.00 0.00 53 1019.6
20260831154001 90 221 1.7 6.1 0.00 0.00 0.00 55 1019.6
20260831153501 89 236 1.7 10.4 0.00 0.00 0.00 57 1019.6
20260831153059 88 169 3.5 10.4 0.00 0.00 0.00 58 1019.7
20260831152558 88 233 1.7 8.7 0.00 0.00 0.00 56 1019.6
20260831152057 87 184 3.5 7.8 0.00 0.00 0.00 57 1019.7
20260831151609 87 171 2.6 7.8 0.00 0.00 0.00 59 1019.6
20260831151055 86 317 2.6 8.7 0.00 0.00 0.00 58 1019.6
20260831150505 86 186 3.5 8.7 0.00 0.00 0.00 59 1019.6
20260831150008 86 300 2.6 8.7 0.00 0.00 0.00 60 1019.6
20260831145503 85 205 1.7 6.1 0.00 0.00 0.00 59 1019.5
20260831145002 85 310 3.5 7.0 0.00 0.00 0.00 59 1019.6
20260831144500 85 194 2.6 7.0 0.00 0.00 0.00 60 1019.7
20260831144059 85 293 0.9 4.3 0.00 0.00 0.00 61 1019.7
20260831143558 84 240 0.9 6.1 0.00 0.00 0.00 61 1019.6
20260831143107 84 205 0.9 8.7 0.00 0.00 0.00 64 1019.6
20260831142556 83 217 4.3 8.7 0.00 0.00 0.00 61 1019.7
20260831142057 83 182 3.5 8.7 0.00 0.00 0.00 61 1019.6
20260831141553 83 175 4.3 9.6 0.00 0.00 0.00 62 1019.6
20260831141051 82 199 2.6 8.7 0.00 0.00 0.00 62 1019.7
20260831140502 82 21 2.6 8.7 0.00 0.00 0.00 64 1019.8
20260831140001 81 192 4.3 8.7 0.00 0.00 0.00 64 1019.8
20260831135600 80 188 3.5 7.0 0.00 0.00 0.00 65 1019.7
20260831135058 79 148 1.7 8.7 0.00 0.00 0.00 68 1019.6
20260831134600 77 215 2.6 8.7 0.00 0.00 0.00 71 1019.7
20260831134055 75 165 1.7 4.3 0.00 0.00 0.00 75 1019.6
20260831133556 75 194 0.9 6.1 0.00 0.00 0.00 75 1019.6
20260831133054 74 144 1.7 7.0 0.00 0.00 0.00 76 1019.7
20260831132554 73 236 1.7 7.0 0.00 0.00 0.00 78 1019.6
20260831132050 71 201 1.7 5.2 0.00 0.00 0.00 82 1019.5
20260831131601 71 144 0.9 4.3 0.00 0.00 0.00 82 1019.5
20260831131049 70 163 0.9 4.3 0.00 0.00 0.00 82 1019.6
20260831130648 70 164 0.9 3.5 0.00 0.00 0.00 82 1019.4
20260831130106 69 149 1.7 3.5 0.00 0.00 0.00 82 1019.4
20260831125552 70 223 1.7 3.5 0.00 0.00 0.00 81 1019.2
20260831125055 69 150 1.7 6.1 0.00 0.00 0.00 83 1019.3
20260831124558 68 146 1.7 6.1 0.00 0.00 0.00 85 1019.3
20260831124050 67 157 0.9 4.3 0.00 0.00 0.00 86 1019.2
20260831123550 67 170 0.9 2.6 0.00 0.00 0.00 87 1019.1
20260831123051 66 142 0.9 2.6 0.00 0.00 0.00 87 1019.1
20260831122548 66 173 1.7 3.5 0.00 0.00 0.00 88 1019.0
20260831122047 66 161 0.0 2.6 0.00 0.00 0.00 88 1019.0
20260831121551 65 165 0.9 4.3 0.00 0.00 0.00 89 1019.0
20260831121045 65 167 0.9 4.3 0.00 0.00 0.00 89 1018.9
20260831120643 65 128 0.0 4.3 0.00 0.00 0.00 89 1018.8
20260831120001 65 165 0.9 4.3 0.00 0.00 0.00 89 1017.9
20260831115600 65 132 0.0 0.9 0.00 0.00 0.00 89 1017.8
20260831115059 65 163 0.0 0.9 0.00 0.00 0.00 89 1017.8
20260831114600 65 168 0.0 0.9 0.00 0.00 0.00 88 1017.7
20260831114058 65 113 0.0 0.9 0.00 0.00 0.00 88 1017.7
20260831113558 65 114 0.0 0.9 0.00 0.00 0.00 88 1017.7
20260831113058 65 126 0.0 0.9 0.00 0.00 0.00 88 1017.6
20260831112556 65 126 0.0 1.7 0.00 0.00 0.00 88 1017.5
20260831112055 65 126 0.0 1.7 0.00 0.00 0.00 88 1017.5
20260831111555 65 111 0.0 1.7 0.00 0.00 0.00 87 1017.6
20260831111054 66 117 0.0 0.9 0.00 0.00 0.00 87 1017.5
20260831110655 66 123 0.0 1.7 0.00 0.00 0.00 86 1017.6
20260831110052 66 136 0.0 1.7 0.00 0.00 0.00 86 1017.6
20260831105552 66 143 0.0 1.7 0.00 0.00 0.00 86 1017.5
20260831105052 66 126 0.9 2.6 0.00 0.00 0.00 87 1017.6
20260831104553 66 138 0.9 2.6 0.00 0.00 0.00 87 1017.5
20260831104050 66 125 0.0 0.9 0.00 0.00 0.00 87 1017.5
20260831103553 66 159 0.0 0.9 0.00 0.00 0.00 86 1017.5
20260831103053 66 150 0.0 0.9 0.00 0.00 0.00 86 1017.4
20260831102554 66 163 0.0 0.9 0.00 0.00 0.00 86 1017.4
20260831102049 66 163 0.0 0.9 0.00 0.00 0.00 85 1017.4
20260831101558 67 164 0.0 0.9 0.00 0.00 0.00 84 1017.4
20260831101048 67 132 0.0 2.6 0.00 0.00 0.00 85 1017.4
20260831100646 67 131 0.0 2.6 0.00 0.00 0.00 84 1017.3
20260831095546 67 113 0.0 1.7 0.00 0.00 0.00 83 1017.4
20260831095046 67 160 0.0 1.7 0.00 0.00 0.00 83 1017.4
20260831094545 67 130 0.0 2.6 0.00 0.00 0.00 83 1017.4
20260831094046 68 130 0.9 4.3 0.00 0.00 0.00 82 1017.4
20260831093545 68 136 0.0 2.6 0.00 0.00 0.00 82 1017.4
20260831093049 68 160 0.0 2.6 0.00 0.00 0.00 81 1017.5
20260831092549 68 147 0.0 1.7 0.00 0.00 0.00 81 1017.4
20260831092044 68 127 0.0 2.6 0.00 0.00 0.00 81 1017.4
20260831091546 69 194 0.0 2.6 0.00 0.00 0.00 81 1017.3
20260831091044 69 150 0.0 2.6 0.00 0.00 0.00 79 1017.3
20260831090644 69 184 0.0 2.6 0.00 0.00 0.00 80 1017.2
20260831090048 69 90 0.0 1.7 0.00 0.00 0.00 79 1017.3
20260831085545 69 200 0.0 2.6 0.00 0.00 0.00 80 1017.4
20260831085045 70 202 0.0 2.6 0.00 0.00 0.00 77 1017.3
20260831084549 70 178 0.0 2.6 0.00 0.00 0.00 77 1017.2
20260831084044 70 193 0.0 1.7 0.00 0.00 0.00 78 1017.1
20260831083544 70 188 0.0 4.3 0.00 0.00 0.00 78 1017.1
20260831083045 69 227 0.9 6.1 0.00 0.00 0.00 78 1017.1
20260831082543 68 207 2.6 6.1 0.00 0.00 0.00 80 1017.0
20260831082043 68 162 0.9 2.6 0.00 0.00 0.00 80 1016.9
20260831081543 68 166 0.9 3.5 0.00 0.00 0.00 81 1016.8
20260831081042 68 142 0.9 5.2 0.00 0.00 0.00 82 1016.8
20260831080642 68 148 0.9 5.2 0.00 0.00 0.00 82 1016.7
20260831080043 67 152 0.0 2.6 0.00 0.00 0.00 81 1016.7
20260831075543 67 197 0.0 2.6 0.00 0.00 0.00 82 1016.8
20260831075047 67 195 0.9 2.6 0.00 0.00 0.00 84 1016.8
20260831074542 67 187 0.9 2.6 0.00 0.00 0.00 84 1016.9
20260831074041 67 174 0.9 2.6 0.00 0.00 0.00 83 1016.9
20260831073541 67 172 0.0 3.5 0.00 0.00 0.00 82 1017.0
20260831073041 67 189 0.0 3.5 0.00 0.00 0.00 82 1017.0
20260831072542 67 158 0.9 4.3 0.00 0.00 0.00 82 1016.9
20260831072040 67 165 0.0 3.5 0.00 0.00 0.00 82 1017.0
20260831071557 68 116 0.0 4.3 0.00 0.00 0.00 82 1016.9
20260831071042 68 167 0.9 5.2 0.00 0.00 0.00 82 1017.0
20260831070502 68 151 0.9 4.3 0.00 0.00 0.00 82 1017.2
20260831070002 68 130 0.9 4.3 0.00 0.00 0.00 81 1017.2
20260831065503 68 145 0.9 4.3 0.00 0.00 0.00 81 1017.2
20260831065002 68 184 0.9 3.5 0.00 0.00 0.00 81 1017.2
20260831064501 69 154 0.9 3.5 0.00 0.00 0.00 81 1017.3
20260831064102 69 185 0.0 3.5 0.00 0.00 0.00 81 1017.3
20260831063600 69 219 0.0 5.2 0.00 0.00 0.00 81 1017.4
20260831063110 69 134 0.9 5.2 0.00 0.00 0.00 81 1017.4
20260831062559 69 169 0.9 4.3 0.00 0.00 0.00 80 1017.4
20260831062059 69 189 1.7 4.3 0.00 0.00 0.00 80 1017.4
20260831061559 69 154 0.9 4.3 0.00 0.00 0.00 79 1017.4
20260831061101 69 136 0.9 4.3 0.00 0.00 0.00 80 1017.5
20260831060503 69 169 0.9 5.2 0.00 0.00 0.00 79 1017.4
20260831060002 70 138 1.7 3.5 0.00 0.00 0.00 78 1017.4
20260831055600 70 133 0.9 2.6 0.00 0.00 0.00 77 1017.5
20260831055103 70 116 0.9 2.6 0.00 0.00 0.00 77 1017.5
20260831054600 70 115 0.9 2.6 0.00 0.00 0.00 77 1017.5
20260831054103 70 144 0.9 3.5 0.00 0.00 0.00 77 1017.5
20260831053558 70 126 0.9 3.5 0.00 0.00 0.00 77 1017.4
20260831053059 70 156 0.9 5.2 0.00 0.00 0.00 77 1017.3
20260831052556 71 126 1.7 5.2 0.00 0.00 0.00 76 1017.4
20260831052056 70 163 0.9 4.3 0.00 0.00 0.00 77 1017.3
20260831051604 71 132 1.7 3.5 0.00 0.00 0.00 77 1017.2
20260831051055 71 138 1.7 4.3 0.00 0.00 0.00 77 1017.2
20260831050653 71 171 0.9 4.3 0.00 0.00 0.00 77 1017.1
20260831050050 71 198 1.7 6.1 0.00 0.00 0.00 76 1017.2
20260831045551 71 163 0.9 6.1 0.00 0.00 0.00 76 1017.1
20260831045050 72 144 0.9 5.2 0.00 0.00 0.00 75 1017.2
20260831044551 72 127 0.9 3.5 0.00 0.00 0.00 73 1017.1
20260831044051 73 156 0.0 3.5 0.00 0.00 0.00 71 1017.0
20260831043549 74 148 1.7 4.3 0.00 0.00 0.00 70 1017.0
20260831043049 74 174 0.9 3.5 0.00 0.00 0.00 70 1016.9
20260831042549 74 192 0.9 6.1 0.00 0.00 0.00 69 1016.9
20260831042050 74 168 1.7 6.1 0.00 0.00 0.00 69 1017.0
20260831041549 74 169 1.7 6.1 0.00 0.00 0.00 69 1016.9
20260831041048 74 175 1.7 5.2 0.00 0.00 0.00 69 1016.9
20260831040648 74 176 0.9 5.2 0.00 0.00 0.00 69 1016.8
20260831040047 75 171 1.7 5.2 0.00 0.00 0.00 69 1016.8
20260831035546 75 163 0.9 5.2 0.00 0.00 0.00 68 1016.9
20260831035047 75 180 0.9 3.5 0.00 0.00 0.00 68 1016.9
20260831034546 75 111 0.9 3.5 0.00 0.00 0.00 68 1017.0
20260831034046 75 165 0.9 5.2 0.00 0.00 0.00 67 1016.9
20260831033549 75 183 0.9 6.1 0.00 0.00 0.00 68 1017.0
20260831033051 76 144 1.7 7.8 0.00 0.00 0.00 69 1016.9
20260831032546 76 194 1.7 4.3 0.00 0.00 0.00 67 1016.9
20260831032046 76 171 1.7 4.3 0.00 0.00 0.00 67 1016.9
20260831031545 76 145 1.7 5.2 0.00 0.00 0.00 67 1017.0
20260831031045 76 144 1.7 4.3 0.00 0.00 0.00 68 1017.0